SCP
0 0 0 0 0 0 0 0 0 0 0 -0 -0 0 0 0 0 0 0 -0 -0 -0 -0 -0 -0 -0 -0 -0 -0 -0 -0 -0 -0 -0 -0 -0 0 0 0 0 -0 -0 -0
0 0 0 0 0 0 0 0 0 0 0 0 -0 -0 -0 0 0 0 0 0 0 -0 -0 -0 -0 -0 -0 -0 -0 -0 -0 -0 -0 -0 -0 -0 -0 -0 0 0 0 -0 -0
0 0 0 0 0 0 0 0 0 0 0 0 0 -0 -0 -0 0 0 0 0 0 0 -0 -0 -0 -0 -0 -0 -0 0 -0 0 0 -0 -0 -0 -0 -0 -0 -0 -0 -0 -0
0 0 0 0 0 0 0 0 0 0 0 0 0 0 0 -0 0 0 0 0 0 0 0 -0 -0 -0 -0 0 0 0 0 0 0 -0 -0 -0 -0 -0 -0 -0 -0 -0 -0
0 0 0 0 0 0 0 0 0 0 0 0 0 0 0 0 0 0 0 0 0 0 0 0 -0 -0 -0 -0 0 0 0 0 0 -0 -0 -0 -0 -0 -0 -0 -0 -0 -0
0 0 0 0 0 0 0 0 0 0 0 0 0 0 0 0 0 0 0 0 0 0 -0 -0 0 -0 -0 -0 -0 0 0 0 0 0 0 -0 0 0 0 0 -0 -0 -0
0 0 0 0 0 0 0 0 0 0 0 0 0 0 0 0 0 0 0 0 0 0 0 -0 -0 0 0 0 0 -0 0 0 0 0 0 0 0 1 0 0 0 0 0
0 0 0 0 0 0 0 0 0 0 0 0 0 0 0 0 0 0 0 0 0 0 0 0 0 0 0 0 0 0 0 0 0 0 0 1 1 1 1 0 0 0 0
0 0 0 0 0 0 0 0 0 0 0 0 0 0 0 0 0 0 0 0 0 0 0 0 0 0 0 0 0 0 0 0 0 0 0 0 0 0 0 0 0 0 -0
0 0 0 0 0 0 0 0 0 0 0 0 0 0 0 0 0 0 0 0 0 0 0 0 0 0 0 0 0 0 0 0 0 0 0 0 0 0 0 0 0 0 0
0 0 0 0 0 0 0 1 1 1 0 0 0 0 0 0 0 0 0 0 0 0 0 0 1 0 0 0 0 0 -0 1 0 0 0 0 0 0 0 0 0 0 0
0 0 0 0 0 0 0 1 1 1 1 1 1 1 0 0 0 0 0 0 0 1 0 1 1 0 0 0 0 0 -0 0 0 0 0 0 0 0 0 0 1 0 0
0 0 0 0 0 0 0 0 1 1 1 1 1 1 1 1 1 0 0 0 0 0 1 1 1 0 0 0 0 0 0 0 0 0 0 0 0 0 0 0 1 0 0
-0 0 0 0 0 0 0 0 1 1 1 1 1 1 1 1 1 1 0 0 0 0 0 0 0 0 0 0 0 0 0 0 0 0 0 0 0 0 0 0 1 1 0
-0 -0 -0 0 0 0 0 0 0 1 2 2 1 2 2 2 2 2 2 0 0 0 0 0 1 1 1 0 0 0 0 0 0 0 0 0 0 0 0 0 1 1 1
-0 -0 -0 0 0 0 0 0 0 0 0 1 1 2 2 1 2 1 1 1 0 0 0 1 1 1 1 1 1 1 1 0 0 1 0 0 0 0 0 0 1 1 1
0 -0 -0 -0 -0 -0 0 0 -0 0 0 0 0 0 0 1 0 1 0 0 0 0 1 1 1 1 1 1 1 1 1 1 1 1 0 1 1 1 1 1 1 2 2
0 0 -0 -0 -0 -0 0 0 0 0 0 1 0 0 0 0 0 0 0 0 0 0 1 2 2 2 1 1 1 1 1 1 1 1 1 1 1 1 1 1 1 2 3
0 0 0 -0 -0 -0 -0 0 0 -0 0 0 1 0 0 0 0 0 0 1 1 0 0 1 2 2 2 1 1 2 2 2 2 2 2 2 1 1 1 2 2 2 3
0 0 0 -0 -0 -0 -0 -0 0 0 0 0 1 1 0 0 0 0 0 0 1 1 1 0 0 0 1 1 1 1 1 1 2 2 2 2 2 2 2 2 2 2 1
0 0 0 0 0 0 0 -0 0 0 0 0 0 0 0 0 0 0 0 0 0 0 0 0 0 0 0 0 0 0 0 0 0 0 0 0 0 0 1 0 1 1 1
0 0 0 0 0 -0 0 0 0 0 0 0 0 0 0 0 0 0 0 0 0 0 0 0 0 0 0 0 0 0 0 0 0 0 0 0 0 0 0 0 0 0 0
0 0 0 0 0 0 0 0 0 0 0 0 0 0 0 0 0 0 0 0 0 0 0 0 0 -0 0 0 0 0 0 0 0 0 0 0 0 0 0 0 0 0 0
0 0 0 0 0 0 0 0 0 0 0 0 0 0 0 0 0 0 0 0 0 0 0 0 0 0 0 0 0 0 0 0 0 0 0 0 0 0 0 0 0 0 0
0 0 0 0 0 0 0 0 0 0 0 0 0 0 0 0 0 0 0 0 0 0 0 0 0 0 0 0 0 0 0 0 0 0 0 0 0 0 0 0 0 0 0
0 0 0 0 0 0 0 0 0 0 0 0 0 0 0 0 0 0 0 0 0 0 0 0 0 0 0 0 0 0 0 0 0 0 0 0 0 0 0 0 0 0 0
Wind_Speed_500mb
98 87 77 70 65 62 61 62 57 55 48 42 40 41 36 28 28 25 22 26 27 27 30 36 35 34 33 33 31 27 26 27 33 34 34 32 33 34 33 36 41 39 38
100 97 85 76 68 65 64 63 62 62 55 46 40 39 42 39 34 33 30 27 28 28 27 31 34 33 35 36 37 35 34 34 36 41 42 39 38 36 41 42 41 37 40
98 99 97 88 80 72 63 63 66 67 63 54 49 45 43 41 39 33 34 38 35 31 31 30 31 32 33 32 34 36 38 40 40 45 49 49 50 47 46 44 41 38 41
90 92 95 96 89 82 72 62 66 69 72 67 58 55 53 50 47 42 39 39 39 35 32 32 34 37 37 35 35 37 37 39 41 45 52 54 53 51 49 51 46 43 48
82 82 84 89 92 89 85 77 67 70 73 77 72 64 60 58 54 49 43 38 37 37 31 29 30 33 37 39 39 37 40 44 45 48 53 54 53 50 49 47 51 55 53
64 64 69 75 81 89 89 87 77 73 74 77 84 79 72 68 63 57 52 49 48 48 45 40 35 33 33 36 40 44 44 47 48 50 52 54 54 51 47 49 52 60 68
50 58 61 62 74 75 80 82 84 79 75 78 84 87 86 80 72 64 60 56 54 54 54 49 44 40 38 41 42 44 47 48 51 51 53 52 52 48 53 53 56 62 68
47 56 60 60 66 68 73 77 79 77 78 77 78 86 90 88 85 79 72 71 70 67 64 60 59 54 50 48 48 50 50 49 47 46 51 51 50 48 49 53 60 65 70
22 39 58 63 61 60 66 70 75 76 78 78 79 78 83 87 91 88 83 85 84 82 77 73 68 64 59 55 55 56 54 53 48 46 47 47 46 46 45 55 60 62 63
13 17 37 53 58 61 61 64 61 65 72 73 74 79 82 81 80 81 85 92 95 93 90 87 79 73 66 62 63 60 62 57 52 48 48 50 49 50 50 53 52 53 51
17 10 12 35 40 45 54 54 56 56 61 69 66 65 69 71 75 78 79 80 85 90 95 95 88 78 69 66 65 66 67 55 57 54 55 57 55 54 52 48 43 46 54
34 30 22 23 26 49 47 50 55 61 60 58 59 59 58 57 60 63 64 70 75 77 81 82 82 75 67 63 65 65 64 59 62 60 60 64 62 57 49 42 43 46 46
41 46 44 43 31 27 44 56 50 53 55 60 64 64 64 61 58 59 58 57 61 67 70 76 76 70 69 70 69 65 61 64 64 64 64 66 65 58 55 50 44 43 46
45 51 57 53 51 41 35 44 64 66 67 69 67 71 69 69 64 60 61 59 57 60 63 65 67 68 68 71 71 69 68 68 67 67 67 68 67 64 60 53 53 50 55
46 49 52 50 46 55 47 41 50 66 70 65 61 61 62 68 56 49 52 54 56 58 54 60 68 72 75 78 76 74 71 70 72 71 70 69 68 65 65 62 61 57 53
45 51 50 57 59 51 58 59 44 56 58 56 50 53 54 57 51 45 44 44 45 47 52 62 68 73 76 75 75 74 70 69 68 67 67 63 61 58 58 62 61 59 56
47 50 62 60 53 53 46 56 58 39 45 67 63 60 55 55 56 46 32 37 39 43 56 62 65 69 71 68 69 70 69 63 56 57 56 53 53 54 55 56 51 45 44
46 51 49 51 48 49 47 46 50 48 37 44 57 51 50 56 51 48 44 49 52 60 62 62 63 61 61 64 61 61 60 55 54 54 52 50 51 48 45 41 36 36 36
56 48 47 54 41 46 47 48 46 49 44 45 49 45 42 47 52 55 59 65 67 66 69 65 63 60 59 59 56 56 55 53 54 55 53 50 48 46 44 37 37 41 43
61 60 53 51 43 48 46 46 43 44 47 50 45 48 41 39 47 57 67 73 77 74 67 65 65 65 64 62 64 63 61 56 54 57 60 58 54 54 50 49 50 50 50
55 58 52 47 43 43 49 46 42 39 47 50 48 49 48 44 44 48 58 71 77 74 76 74 69 66 65 63 65 60 60 55 51 50 52 54 52 50 51 51 48 51 50
54 55 48 39 37 46 46 41 38 39 42 46 43 47 51 50 51 52 57 62 66 63 74 75 62 43 41 46 45 43 50 53 51 49 48 43 39 40 42 45 50 57 68
47 46 40 36 40 44 39 40 34 37 43 46 45 40 42 45 45 46 49 53 52 45 39 35 42 66 72 47 48 40 40 47 47 46 45 47 50 53 53 56 61 66 64
34 34 32 36 35 32 30 33 30 35 37 34 36 35 36 39 37 39 43 46 48 48 50 48 43 49 62 64 51 47 44 30 23 25 30 35 33 31 33 34 35 35 36
22 22 25 25 24 22 22 21 19 28 27 29 29 28 28 28 30 33 33 33 30 31 32 33 35 42 36 29 32 23 17 18 18 14 12 22 26 27 24 23 25 26 27
7 9 11 13 13 11 15 14 14 13 18 23 26 29 32 32 30 35 41 40 38 36 37 35 29 23 20 22 19 17 16 11 19 21 23 20 18 21 24 19 18 20 22
Wind_Direction_500mb
231 228 229 228 230 227 225 225 224 222 221 230 240 245 244 238 237 240 244 245 248 247 248 246 250 255 260 266 270 276 287 295 295 298 302 301 305 309 311 319 322 323 321
232 231 231 231 230 228 227 226 227 223 223 229 233 237 241 238 240 247 252 258 259 256 252 256 253 258 262 264 265 266 274 283 294 298 301 302 303 307 315 321 325 319 322
233 233 233 233 232 230 229 230 227 228 227 228 229 230 231 233 237 245 257 258 263 264 253 255 252 255 259 266 264 261 266 275 283 291 298 300 302 309 314 319 320 316 318
234 236 236 236 237 236 234 231 232 229 230 230 230 230 231 236 242 249 260 260 256 263 258 251 251 255 260 266 267 264 265 272 277 282 289 294 297 303 312 319 319 320 321
235 239 242 242 242 242 240 238 236 234 232 232 233 232 232 237 241 244 253 258 255 257 260 259 260 260 262 263 266 265 265 269 275 279 284 290 295 302 311 318 318 320 320
239 242 244 244 243 245 244 242 239 240 236 234 234 236 236 237 241 247 252 254 254 257 259 263 267 270 272 271 268 267 268 272 275 278 284 288 294 302 308 312 316 322 323
242 244 243 244 246 243 247 247 246 241 243 238 236 237 239 241 243 244 248 252 255 256 259 262 263 267 275 278 277 274 271 270 272 278 282 286 293 300 306 308 312 311 312
229 243 249 248 244 244 245 247 247 246 242 242 240 240 241 243 245 245 247 251 256 258 259 262 265 268 271 275 278 275 273 270 269 271 275 283 289 296 298 302 302 304 306
224 228 236 243 247 250 245 246 243 246 246 244 244 244 244 245 246 247 247 248 252 256 260 262 265 267 268 269 273 272 270 267 266 268 273 279 283 288 290 292 296 303 307
224 224 225 230 235 250 252 253 248 242 246 246 247 248 248 249 249 249 248 249 251 253 257 260 262 263 265 265 265 267 267 266 270 273 274 275 278 278 281 284 291 294 298
19 13 280 251 249 250 253 256 256 252 250 245 243 246 249 251 252 251 250 249 249 252 253 256 259 260 260 261 261 263 263 268 270 272 273 273 272 272 276 283 278 281 288
19 8 341 333 285 246 243 247 255 252 254 250 245 247 249 248 249 251 251 250 251 251 250 253 255 257 258 257 259 259 262 264 266 267 267 269 272 276 283 277 274 277 280
310 321 331 344 315 299 246 241 244 247 252 247 247 247 249 251 249 250 252 253 251 250 249 251 256 255 256 257 257 257 254 254 257 261 264 268 274 278 277 272 272 274 287
305 308 301 311 322 313 307 249 238 241 252 251 246 245 249 253 255 256 255 252 251 248 249 249 251 254 253 253 252 249 248 248 254 260 263 268 272 275 276 273 271 277 287
303 307 310 305 307 313 304 294 240 245 249 248 243 246 251 254 259 266 262 255 253 253 252 249 249 247 247 250 250 250 247 248 252 258 264 269 273 274 271 269 270 273 274
298 300 305 304 299 299 312 305 271 239 245 247 251 257 254 262 265 265 260 255 255 251 247 243 244 246 248 250 252 254 252 251 255 261 266 268 271 273 272 269 265 264 265
290 288 285 293 284 286 290 294 291 257 244 248 251 256 257 251 256 258 257 257 259 250 241 241 243 244 246 248 251 253 255 258 262 261 261 263 267 268 270 266 260 255 249
278 265 278 277 279 284 281 288 283 290 267 266 257 257 260 256 251 252 250 254 248 244 246 247 250 248 249 252 252 255 259 261 260 260 262 265 264 265 264 256 238 226 227
274 273 265 267 276 280 279 280 276 279 275 271 266 259 256 258 247 246 251 250 251 248 249 252 255 253 256 257 258 257 259 260 261 263 262 262 256 256 254 239 228 223 223
276 278 276 279 279 276 278 274 277 267 278 273 264 269 258 253 248 249 247 249 251 252 255 253 253 250 251 259 265 263 260 261 260 257 256 253 255 257 257 254 252 247 239
277 274 275 276 279 278 272 265 265 270 259 273 268 258 252 248 251 252 251 249 246 247 249 254 257 258 255 255 260 257 257 251 248 246 249 250 253 253 249 247 244 242 225
277 271 268 271 275 271 268 267 266 266 261 260 266 263 254 245 250 252 253 254 254 248 245 243 245 248 250 251 248 242 247 246 241 238 239 243 237 236 235 234 241 248 254
274 268 270 272 267 270 275 273 270 267 259 252 262 256 258 254 253 252 253 253 247 235 201 201 215 302 284 251 252 235 221 222 225 229 232 240 246 249 253 258 262 262 263
269 260 261 261 262 265 262 260 259 255 243 241 247 243 240 238 228 231 235 232 215 205 203 217 231 230 228 225 233 222 219 220 221 236 246 247 246 251 256 258 257 262 249
264 251 250 257 257 252 245 241 241 243 236 223 220 219 220 215 204 188 187 190 181 183 180 184 188 177 170 168 179 172 189 221 236 224 248 247 241 237 232 236 242 264 262
236 228 223 229 235 227 217 191 194 202 211 196 185 182 185 172 175 170 161 160 152 147 150 146 146 146 143 154 150 163 197 210 231 222 222 255 268 279 291 290 308 301 297
Wind_Speed_850mb
98 87 77 70 65 62 61 62 57 55 48 42 40 41 36 28 28 25 22 26 27 27 30 36 35 34 33 33 31 27 26 27 33 34 34 32 33 34 33 36 41 39 38
100 97 85 76 68 65 64 63 62 62 55 46 40 39 42 39 34 33 30 27 28 28 27 31 34 33 35 36 37 35 34 34 36 41 42 39 38 36 41 42 41 37 40
98 99 97 88 80 72 63 63 66 67 63 54 49 45 43 41 39 33 34 38 35 31 31 30 31 32 33 32 34 36 38 40 40 45 49 49 50 47 46 44 41 38 41
90 92 95 96 89 82 72 62 66 69 72 67 58 55 53 50 47 42 39 39 39 35 32 32 34 37 37 35 35 37 37 39 41 45 52 54 53 51 49 51 46 43 48
82 82 84 89 92 89 85 77 67 70 73 77 72 64 60 58 54 49 43 38 37 37 31 29 30 33 37 39 39 37 40 44 45 48 53 54 53 50 49 47 51 55 53
64 64 69 75 81 89 89 87 77 73 74 77 84 79 72 68 63 57 52 49 48 48 45 40 35 33 33 36 40 44 44 47 48 50 52 54 54 51 47 49 52 60 68
50 58 61 62 74 75 80 82 84 79 75 78 84 87 86 80 72 64 60 56 54 54 54 49 44 40 38 41 42 44 47 48 51 51 53 52 52 48 53 53 56 62 68
47 56 60 60 66 68 73 77 79 77 78 77 78 86 90 88 85 79 72 71 70 67 64 60 59 54 50 48 48 50 50 49 47 46 51 51 50 48 49 53 60 65 70
22 39 58 63 61 60 66 70 75 76 78 78 79 78 83 87 91 88 83 85 84 82 77 73 68 64 59 55 55 56 54 53 48 46 47 47 46 46 45 55 60 62 63
13 17 37 53 58 61 61 64 61 65 72 73 74 79 82 81 80 81 85 92 95 93 90 87 79 73 66 62 63 60 62 57 52 48 48 50 49 50 50 53 52 53 51
17 10 12 35 40 45 54 54 56 56 61 69 66 65 69 71 75 78 79 80 85 90 95 95 88 78 69 66 65 66 67 55 57 54 55 57 55 54 52 48 43 46 54
34 30 22 23 26 49 47 50 55 61 60 58 59 59 58 57 60 63 64 70 75 77 81 82 82 75 67 63 65 65 64 59 62 60 60 64 62 57 49 42 43 46 46
41 46 44 43 31 27 44 56 50 53 55 60 64 64 64 61 58 59 58 57 61 67 70 76 76 70 69 70 69 65 61 64 64 64 64 66 65 58 55 50 44 43 46
45 51 57 53 51 41 35 44 64 66 67 69 67 71 69 69 64 60 61 59 57 60 63 65 67 68 68 71 71 69 68 68 67 67 67 68 67 64 60 53 53 50 55
46 49 52 50 46 55 47 41 50 66 70 65 61 61 62 68 56 49 52 54 56 58 54 60 68 72 75 78 76 74 71 70 72 71 70 69 68 65 65 62 61 57 53
45 51 50 57 59 51 58 59 44 56 58 56 50 53 54 57 51 45 44 44 45 47 52 62 68 73 76 75 75 74 70 69 68 67 67 63 61 58 58 62 61 59 56
47 50 62 60 53 53 46 56 58 39 45 67 63 60 55 55 56 46 32 37 39 43 56 62 65 69 71 68 69 70 69 63 56 57 56 53 53 54 55 56 51 45 44
46 51 49 51 48 49 47 46 50 48 37 44 57 51 50 56 51 48 44 49 52 60 62 62 63 61 61 64 61 61 60 55 54 54 52 50 51 48 45 41 36 36 36
56 48 47 54 41 46 47 48 46 49 44 45 49 45 42 47 52 55 59 65 67 66 69 65 63 60 59 59 56 56 55 53 54 55 53 50 48 46 44 37 37 41 43
61 60 53 51 43 48 46 46 43 44 47 50 45 48 41 39 47 57 67 73 77 74 67 65 65 65 64 62 64 63 61 56 54 57 60 58 54 54 50 49 50 50 50
55 58 52 47 43 43 49 46 42 39 47 50 48 49 48 44 44 48 58 71 77 74 76 74 69 66 65 63 65 60 60 55 51 50 52 54 52 50 51 51 48 51 50
54 55 48 39 37 46 46 41 38 39 42 46 43 47 51 50 51 52 57 62 66 63 74 75 62 43 41 46 45 43 50 53 51 49 48 43 39 40 42 45 50 57 68
47 46 40 36 40 44 39 40 34 37 43 46 45 40 42 45 45 46 49 53 52 45 39 35 42 66 72 47 48 40 40 47 47 46 45 47 50 53 53 56 61 66 64
34 34 32 36 35 32 30 33 30 35 37 34 36 35 36 39 37 39 43 46 48 48 50 48 43 49 62 64 51 47 44 30 23 25 30 35 33 31 33 34 35 35 36
22 22 25 25 24 22 22 21 19 28 27 29 29 28 28 28 30 33 33 33 30 31 32 33 35 42 36 29 32 23 17 18 18 14 12 22 26 27 24 23 25 26 27
7 9 11 13 13 11 15 14 14 13 18 23 26 29 32 32 30 35 41 40 38 36 37 35 29 23 20 22 19 17 16 11 19 21 23 20 18 21 24 19 18 20 22
Wind_Direction_850mb
231 228 229 228 230 227 225 225 224 222 221 230 240 245 244 238 237 240 244 245 248 247 248 246 250 255 260 266 270 276 287 295 295 298 302 301 305 309 311 319 322 323 321
232 231 231 231 230 228 227 226 227 223 223 229 233 237 241 238 240 247 252 258 259 256 252 256 253 258 262 264 265 266 274 283 294 298 301 302 303 307 315 321 325 319 322
233 233 233 233 232 230 229 230 227 228 227 228 229 230 231 233 237 245 257 258 263 264 253 255 252 255 259 266 264 261 266 275 283 291 298 300 302 309 314 319 320 316 318
234 236 236 236 237 236 234 231 232 229 230 230 230 230 231 236 242 249 260 260 256 263 258 251 251 255 260 266 267 264 265 272 277 282 289 294 297 303 312 319 319 320 321
235 239 242 242 242 242 240 238 236 234 232 232 233 232 232 237 241 244 253 258 255 257 260 259 260 260 262 263 266 265 265 269 275 279 284 290 295 302 311 318 318 320 320
239 242 244 244 243 245 244 242 239 240 236 234 234 236 236 237 241 247 252 254 254 257 259 263 267 270 272 271 268 267 268 272 275 278 284 288 294 302 308 312 316 322 323
242 244 243 244 246 243 247 247 246 241 243 238 236 237 239 241 243 244 248 252 255 256 259 262 263 267 275 278 277 274 271 270 272 278 282 286 293 300 306 308 312 311 312
229 243 249 248 244 244 245 247 247 246 242 242 240 240 241 243 245 245 247 251 256 258 259 262 265 268 271 275 278 275 273 270 269 271 275 283 289 296 298 302 302 304 306
224 228 236 243 247 250 245 246 243 246 246 244 244 244 244 245 246 247 247 248 252 256 260 262 265 267 268 269 273 272 270 267 266 268 273 279 283 288 290 292 296 303 307
224 224 225 230 235 250 252 253 248 242 246 246 247 248 248 249 249 249 248 249 251 253 257 260 262 263 265 265 265 267 267 266 270 273 274 275 278 278 281 284 291 294 298
19 13 280 251 249 250 253 256 256 252 250 245 243 246 249 251 252 251 250 249 249 252 253 256 259 260 260 261 261 263 263 268 270 272 273 273 272 272 276 283 278 281 288
19 8 341 333 285 246 243 247 255 252 254 250 245 247 249 248 249 251 251 250 251 251 250 253 255 257 258 257 259 259 262 264 266 267 267 269 272 276 283 277 274 277 280
310 321 331 344 315 299 246 241 244 247 252 247 247 247 249 251 249 250 252 253 251 250 249 251 256 255 256 257 257 257 254 254 257 261 264 268 274 278 277 272 272 274 287
305 308 301 311 322 313 307 249 238 241 252 251 246 245 249 253 255 256 255 252 251 248 249 249 251 254 253 253 252 249 248 248 254 260 263 268 272 275 276 273 271 277 287
303 307 310 305 307 313 304 294 240 245 249 248 243 246 251 254 259 266 262 255 253 253 252 249 249 247 247 250 250 250 247 248 252 258 264 269 273 274 271 269 270 273 274
298 300 305 304 299 299 312 305 271 239 245 247 251 257 254 262 265 265 260 255 255 251 247 243 244 246 248 250 252 254 252 251 255 261 266 268 271 273 272 269 265 264 265
290 288 285 293 284 286 290 294 291 257 244 248 251 256 257 251 256 258 257 257 259 250 241 241 243 244 246 248 251 253 255 258 262 261 261 263 267 268 270 266 260 255 249
278 265 278 277 279 284 281 288 283 290 267 266 257 257 260 256 251 252 250 254 248 244 246 247 250 248 249 252 252 255 259 261 260 260 262 265 264 265 264 256 238 226 227
274 273 265 267 276 280 279 280 276 279 275 271 266 259 256 258 247 246 251 250 251 248 249 252 255 253 256 257 258 257 259 260 261 263 262 262 256 256 254 239 228 223 223
276 278 276 279 279 276 278 274 277 267 278 273 264 269 258 253 248 249 247 249 251 252 255 253 253 250 251 259 265 263 260 261 260 257 256 253 255 257 257 254 252 247 239
277 274 275 276 279 278 272 265 265 270 259 273 268 258 252 248 251 252 251 249 246 247 249 254 257 258 255 255 260 257 257 251 248 246 249 250 253 253 249 247 244 242 225
277 271 268 271 275 271 268 267 266 266 261 260 266 263 254 245 250 252 253 254 254 248 245 243 245 248 250 251 248 242 247 246 241 238 239 243 237 236 235 234 241 248 254
274 268 270 272 267 270 275 273 270 267 259 252 262 256 258 254 253 252 253 253 247 235 201 201 215 302 284 251 252 235 221 222 225 229 232 240 246 249 253 258 262 262 263
269 260 261 261 262 265 262 260 259 255 243 241 247 243 240 238 228 231 235 232 215 205 203 217 231 230 228 225 233 222 219 220 221 236 246 247 246 251 256 258 257 262 249
264 251 250 257 257 252 245 241 241 243 236 223 220 219 220 215 204 188 187 190 181 183 180 184 188 177 170 168 179 172 189 221 236 224 248 247 241 237 232 236 242 264 262
236 228 223 229 235 227 217 191 194 202 211 196 185 182 185 172 175 170 161 160 152 147 150 146 146 146 143 154 150 163 197 210 231 222 222 255 268 279 291 290 308 301 297